Temperature
20 20 20 20 24 26 26 25 26 25 25 24 24 24 24 23 23 22 18 18 19 19 18 19 19 19 19 19 19 19 19 19 19 19 19 19 19 19 19 19 19 19 19 19 19 19 19 19 19
20 20 20 22 26 26 25 25 25 24 24 24 24 24 24 22 20 19 18 18 18 18 18 18 19 19 19 19 19 19 19 19 19 19 19 19 19 19 19 19 19 19 19 19 19 19 19 19 19
21 21 22 26 26 25 24 24 24 24 23 24 24 23 22 20 19 18 18 18 18 18 18 18 19 19 19 19 19 19 19 19 19 19 19 19 19 19 19 19 19 19 19 19 18 18 18 18 18
20 21 24 27 25 24 24 24 24 24 24 23 24 22 20 18 18 18 18 18 18 18 18 18 19 18 18 18 18 18 18 19 19 19 19 19 19 19 19 19 19 19 19 19 18 18 18 18 18
21 24 26 26 25 24 24 23 24 24 23 23 23 22 19 17 18 18 18 18 18 18 18 18 18 18 18 18 18 18 18 18 18 18 18 18 18 18 18 18 18 18 19 19 18 18 18 18 18
23 25 26 26 25 24 24 23 23 23 23 22 22 22 18 17 17 18 18 18 18 18 18 18 18 18 18 18 18 18 18 18 18 18 18 18 18 18 18 18 18 18 18 18 18 18 18 18 18
24 26 26 26 25 24 23 22 23 23 23 21 21 21 19 17 17 17 18 18 18 18 18 18 17 17 18 18 18 18 18 18 18 18 18 18 18 18 18 18 18 18 18 18 18 18 18 18 18
23 27 26 26 25 24 23 22 21 22 21 19 20 21 19 17 17 17 17 17 17 17 17 17 17 17 17 17 17 18 18 18 18 18 18 18 18 18 18 18 18 18 18 18 18 18 18 18 18
23 27 26 25 25 24 23 22 21 20 20 19 18 18 17 17 17 17 17 17 17 17 17 17 17 17 17 17 17 17 17 17 17 17 17 17 17 17 17 17 18 18 18 18 18 18 18 18 18
25 26 25 24 25 24 22 22 21 21 21 20 19 17 17 17 17 17 17 17 17 16 16 17 17 17 17 17 17 17 17 17 17 17 17 17 17 17 17 17 18 18 18 18 18 18 18 18 17
25 25 24 23 22 22 22 21 21 22 21 20 19 18 17 17 17 17 17 16 16 16 16 16 16 16 16 16 16 16 17 17 17 17 17 17 17 17 17 17 17 17 17 17 17 17 17 17 17
25 23 23 22 21 22 22 21 21 21 20 18 18 17 17 17 17 17 16 16 16 15 15 15 15 15 15 15 15 16 16 16 16 16 17 17 17 17 17 17 17 17 17 17 17 17 17 17 17
25 23 21 21 21 21 21 21 20 19 18 18 17 17 17 17 17 16 16 16 15 15 14 14 14 14 14 14 15 15 15 15 16 16 16 16 16 17 17 17 17 17 17 17 17 17 17 17 17
23 22 21 21 21 21 21 20 20 19 18 18 18 18 17 17 16 16 16 15 15 15 14 14 14 14 14 14 14 14 15 15 15 15 15 16 16 16 17 17 17 17 17 17 17 17 17 17 17
22 23 22 22 22 21 22 21 21 19 18 18 18 17 17 16 16 16 15 15 14 14 14 13 13 13 13 13 14 14 14 14 15 15 15 15 15 16 16 16 17 17 17 17 17 17 17 17 17
24 24 24 23 22 21 22 23 20 18 18 18 18 18 17 16 16 15 15 14 14 14 13 13 13 13 13 13 13 14 14 14 14 14 14 15 15 15 15 16 16 16 17 17 17 17 17 17 17
25 25 25 23 22 22 22 23 20 18 19 19 18 18 17 17 16 15 14 14 13 13 13 13 12 12 13 13 13 13 13 13 13 14 14 14 14 15 15 15 16 16 16 16 16 17 17 17 17
26 26 25 24 23 22 22 22 20 19 19 19 18 18 18 17 16 15 14 14 13 13 13 13 12 12 12 13 13 13 13 13 13 13 14 14 14 14 14 15 15 15 16 16 16 16 16 17 17
26 26 25 24 22 22 22 22 21 19 19 19 19 18 18 17 16 15 14 14 13 13 13 12 12 12 12 12 13 13 13 13 13 13 13 13 14 14 14 14 15 15 15 16 16 16 16 16 16
25 25 24 22 21 22 22 22 21 20 19 19 19 18 18 17 17 15 15 14 13 13 13 12 12 12 12 12 12 12 12 12 12 13 13 13 13 13 14 14 14 15 15 15 15 16 16 16 16
25 25 24 23 21 21 22 22 21 21 19 18 18 17 17 16 16 15 15 14 13 13 12 12 12 12 12 12 12 12 12 12 12 12 13 13 13 13 13 13 14 14 14 15 15 15 15 16 16
24 23 23 22 22 23 22 23 23 22 20 19 18 18 17 16 16 15 14 14 13 13 12 12 12 12 12 12 12 12 12 12 12 12 12 12 13 13 13 13 14 14 14 14 14 15 15 15 15
23 22 22 22 22 23 22 22 24 21 21 21 19 18 17 16 15 15 14 14 13 13 12 12 12 12 11 11 11 12 11 12 12 12 12 12 12 13 13 13 13 14 14 14 14 14 15 15 15
22 22 22 22 23 23 22 22 23 23 21 21 19 18 17 16 15 15 14 13 13 13 12 12 12 11 11 11 11 11 11 11 11 11 12 12 12 12 12 13 13 13 14 14 14 14 14 14 15
23 23 23 23 23 23 21 21 22 22 21 20 19 18 17 16 16 15 14 14 13 13 12 12 12 11 11 11 11 11 11 11 11 11 11 12 12 12 12 13 13 13 13 14 14 14 14 14 14
23 24 23 23 23 23 21 22 23 21 19 18 18 17 17 16 16 15 14 14 13 13 12 12 12 11 11 11 11 11 11 11 11 11 11 11 12 12 12 12 13 13 13 13 13 14 14 14 14
23 23 23 23 22 22 23 23 22 20 20 19 18 17 17 16 16 15 14 14 13 13 12 12 12 12 11 11 11 11 11 11 11 11 11 11 11 11 12 12 12 13 13 13 13 13 13 14 14
23 22 22 23 22 23 23 23 23 22 21 20 19 18 17 16 16 15 14 14 13 13 12 12 12 11 11 11 11 11 10 10 10 10 11 11 11 11 11 12 12 12 13 13 13 13 13 13 14
22 22 22 22 22 22 23 23 23 22 21 21 20 18 17 17 16 15 15 14 13 13 13 12 12 12 11 11 11 10 10 10 10 10 10 11 11 11 11 11 12 12 12 12 13 13 13 13 13
22 22 22 22 22 21 22 23 22 21 20 20 19 18 17 16 16 15 15 14 14 13 13 12 12 12 11 11 11 10 10 10 10 10 10 10 10 10 11 11 11 11 12 12 12 12 13 13 13
Wind_Speed
8 7 4 2 3 2 7 6 5 5 4 6 5 4 5 7 5 4 4 3 3 7 8 9 8 8 8 8 8 7 7 7 7 7 7 6 6 5 5 4 3 3 2 2 1 2 2 2 3
7 5 3 3 1 4 6 6 8 8 6 3 4 5 7 8 7 5 4 3 3 6 6 6 7 7 7 7 7 7 7 7 7 7 7 6 6 6 6 5 4 4 3 2 2 1 1 1 2
6 3 2 1 2 5 5 5 6 6 7 4 4 6 5 6 6 5 5 3 4 4 4 4 3 4 5 5 6 7 7 7 7 7 8 7 7 7 7 6 5 5 4 3 2 2 1 1 1
3 3 2 1 7 6 5 5 4 3 5 7 4 7 6 7 6 5 5 4 5 4 4 4 2 1 2 4 5 6 7 8 8 9 9 9 9 8 8 7 7 6 5 4 3 2 2 1 1
3 2 2 4 6 5 5 5 5 5 4 7 6 7 6 8 9 8 6 5 5 5 5 5 7 5 3 3 4 6 7 8 9 10 10 10 10 10 9 9 8 7 6 5 4 3 3 2 1
2 2 1 3 5 5 5 5 4 6 6 6 5 6 6 8 10 9 8 8 8 7 7 7 8 8 8 7 6 7 8 8 10 11 11 11 11 11 10 10 9 8 7 6 6 5 4 3 2
2 1 1 3 5 4 3 3 5 4 6 7 5 4 5 9 9 8 7 7 8 8 8 8 8 7 6 7 8 8 8 9 10 12 12 12 11 11 11 10 10 9 9 8 7 6 5 4 3
2 1 2 2 3 3 4 4 5 6 6 6 5 4 5 7 7 7 8 8 8 8 8 8 8 9 8 8 7 9 9 10 10 11 12 12 12 13 12 12 12 11 10 10 9 7 7 6 5
2 2 0 1 1 4 5 4 4 5 8 8 8 9 7 6 6 7 8 8 8 8 7 8 8 8 8 8 8 9 8 8 9 9 10 11 12 13 12 14 10 11 12 11 10 9 8 8 8
2 1 2 2 2 5 6 5 5 5 8 8 9 9 7 6 7 8 9 9 9 9 8 8 8 8 8 8 7 7 7 7 7 7 8 9 10 10 10 7 9 12 13 13 12 11 10 12 10
1 2 4 4 4 6 6 6 3 5 5 5 6 6 6 6 7 8 8 8 8 8 8 8 8 8 8 7 7 6 6 6 7 7 7 8 9 9 9 8 9 12 13 13 12 13 12 11 9
4 5 4 5 5 4 6 6 5 4 6 6 6 6 5 6 7 8 8 9 8 9 10 9 9 9 8 8 7 7 6 6 6 7 8 8 6 7 7 7 8 8 9 9 10 9 10 11 10
4 5 5 6 6 6 7 7 6 8 8 7 6 5 5 6 6 7 8 8 9 10 10 11 11 10 9 8 7 7 6 7 8 7 8 9 7 7 7 6 7 8 9 9 9 9 9 9 9
6 9 8 7 7 5 7 7 5 6 7 6 5 4 4 5 6 7 9 10 11 11 11 11 11 10 10 9 8 8 8 7 8 8 9 9 8 8 7 7 7 7 8 9 8 9 8 8 7
9 8 7 5 5 5 6 5 4 7 7 5 4 3 3 4 5 8 9 10 11 11 12 11 11 11 10 10 9 8 8 9 8 8 9 9 9 9 8 8 7 7 9 9 8 9 7 7 7
6 5 4 6 5 5 6 4 6 8 7 5 2 1 2 3 6 7 9 10 10 11 11 11 10 11 10 9 9 8 8 8 7 8 8 9 9 9 8 7 8 8 7 6 6 6 6 7 7
6 6 5 5 6 5 6 4 6 7 7 5 3 1 2 3 6 8 9 9 10 10 11 11 11 11 10 10 8 8 7 7 7 7 7 8 9 9 8 7 7 7 6 6 7 6 7 7 7
5 6 5 3 5 6 7 5 5 7 7 5 4 3 3 5 7 8 8 9 9 10 10 11 11 10 10 8 8 7 7 6 6 6 6 7 8 8 8 7 7 7 6 6 6 7 7 6 7
3 5 4 0 1 5 8 7 6 7 7 7 5 4 4 5 6 7 8 9 9 10 11 11 11 11 9 8 8 7 7 7 6 6 6 7 7 8 7 7 7 6 7 7 8 7 8 6 6
2 3 2 2 1 4 5 8 6 7 8 7 6 5 5 6 7 7 8 9 9 10 11 11 11 11 10 8 8 6 7 7 6 6 6 7 7 6 6 7 7 7 7 8 8 8 7 6 6
1 3 2 1 2 3 5 6 7 6 7 7 7 6 5 5 7 8 8 9 9 10 10 10 11 10 10 10 7 7 6 5 5 6 6 6 6 6 6 6 7 7 7 7 8 8 9 7 7
1 1 1 3 4 2 3 4 2 4 6 8 8 6 5 5 6 7 8 9 9 9 10 10 11 11 10 10 8 9 7 7 7 7 6 6 6 6 5 6 6 6 6 7 8 8 8 8 7
3 3 2 3 4 5 3 5 1 2 4 4 5 5 4 4 5 6 7 8 8 8 8 9 10 10 10 10 9 9 8 7 7 7 7 7 5 6 6 5 5 6 6 7 8 8 8 8 9
6 4 3 4 5 4 1 4 2 0 2 1 1 2 3 3 4 5 5 6 7 7 7 8 9 9 9 10 9 9 9 9 9 8 7 6 5 5 6 6 5 6 6 7 7 8 9 9 10
4 4 4 4 3 1 1 4 3 2 2 3 3 2 2 3 4 4 6 6 7 7 7 8 8 9 9 10 9 10 10 9 8 8 7 7 6 6 7 6 6 5 5 6 6 7 8 9 10
1 4 4 4 3 1 3 4 1 1 2 3 4 3 3 3 4 4 5 6 6 7 7 7 8 8 9 9 9 9 9 7 7 8 7 7 6 6 7 7 6 6 6 6 5 6 7 7 9
2 1 3 3 3 4 2 2 2 2 4 5 5 5 5 4 4 4 5 5 5 6 6 7 7 8 8 8 9 9 10 9 9 9 8 7 7 7 8 7 7 6 6 5 4 4 5 6 7
3 2 3 3 3 2 1 2 2 1 2 3 4 5 5 4 4 4 4 5 5 5 5 6 6 7 7 7 8 7 9 9 9 8 9 9 9 9 9 8 7 7 6 5 4 4 4 5 6
4 3 2 2 3 4 2 1 2 2 2 3 3 4 4 5 4 4 4 4 4 4 4 5 5 6 6 7 8 8 8 8 8 8 9 9 9 9 9 8 8 7 7 6 4 4 4 4 5
2 2 3 3 2 3 4 1 3 2 4 5 5 4 4 4 4 4 4 4 4 4 4 4 5 5 5 6 7 8 8 8 9 9 9 9 9 9 9 9 8 8 7 6 5 5 5 4 4
Wind_Direction
174 175 188 222 231 117 72 50 41 51 55 51 50 52 57 42 19 45 47 88 127 150 152 158 171 173 174 175 178 181 184 185 185 185 185 185 189 193 196 198 198 192 181 167 142 121 101 88 83
163 172 208 238 252 98 74 49 49 45 42 48 55 51 64 58 42 49 52 62 131 145 154 158 157 182 186 188 193 196 198 199 200 200 200 202 205 209 211 213 215 214 211 203 189 162 130 100 82
165 215 254 255 62 65 78 53 45 47 42 40 70 52 47 35 20 23 28 81 120 123 128 115 151 189 198 203 207 210 212 212 214 215 216 217 217 218 218 220 224 225 224 218 211 201 171 132 92
196 225 237 98 85 68 60 41 24 45 53 39 71 78 74 32 5 19 42 68 97 97 87 87 72 164 220 232 233 230 230 229 229 228 227 225 224 225 227 227 228 227 226 224 221 219 208 176 119
231 248 179 105 91 90 69 41 36 48 56 43 61 88 73 29 28 41 47 54 60 62 52 53 44 25 359 307 280 263 252 247 243 238 234 231 230 230 230 232 231 228 228 230 230 228 218 200 170
249 254 178 105 107 107 82 49 53 56 67 53 55 86 70 34 29 33 44 50 49 41 34 29 41 29 18 359 333 303 283 270 262 255 247 241 238 236 235 236 234 230 230 234 235 229 225 218 213
285 296 69 114 127 120 93 60 45 50 59 40 16 81 89 41 32 37 49 55 49 39 28 15 5 4 7 3 351 336 313 291 276 266 257 250 246 242 241 240 235 232 232 232 232 229 229 228 229
289 237 124 132 147 119 108 91 60 38 59 42 26 62 63 36 45 55 57 53 48 37 23 8 359 351 344 338 338 334 327 310 294 279 266 256 249 243 241 241 232 234 236 233 229 229 231 233 233
260 248 103 122 154 120 129 118 84 74 83 73 67 70 70 67 67 63 59 49 40 31 19 7 357 352 345 335 336 327 315 310 302 290 275 264 256 248 235 236 230 235 239 238 231 227 229 234 223
259 308 62 63 75 123 126 112 116 118 97 92 90 84 82 74 60 51 43 36 28 18 8 2 354 346 342 335 326 315 305 298 294 294 291 274 264 261 258 245 233 240 242 240 235 230 227 233 226
51 67 103 101 98 123 128 116 117 138 98 94 101 96 85 69 54 42 34 23 13 360 356 350 340 334 329 319 312 311 301 290 281 283 283 280 274 266 258 251 235 235 235 237 223 222 227 227 230
110 87 105 118 117 129 131 127 113 83 99 103 101 100 85 61 46 32 19 8 358 354 349 342 335 326 320 315 310 301 296 292 281 275 276 272 265 261 258 251 248 246 241 238 236 232 229 232 231
127 123 108 111 117 120 123 122 114 110 114 116 113 103 73 49 34 25 10 358 352 347 342 340 333 330 327 321 307 299 295 291 286 277 271 265 262 259 253 254 251 248 246 239 237 236 232 234 238
122 125 124 126 127 133 133 125 131 133 140 134 126 99 64 41 19 7 3 355 350 345 341 339 334 331 325 319 310 304 299 292 285 278 274 272 266 263 258 254 251 250 250 250 246 240 237 237 238
133 131 136 149 150 150 161 157 154 148 160 154 143 102 53 25 8 3 358 350 349 344 342 343 334 332 328 323 317 307 299 294 288 283 280 276 272 269 265 260 254 249 246 245 245 243 239 234 232
162 182 195 171 178 176 227 244 147 164 178 178 174 123 18 9 357 1 354 349 348 344 344 342 338 335 332 327 319 311 306 302 295 289 283 279 275 272 272 263 259 254 249 241 237 234 229 228 226
205 248 256 177 192 198 235 260 156 179 197 205 211 246 322 346 355 359 354 350 347 345 344 344 343 338 335 329 320 316 311 307 301 295 291 286 280 275 270 265 263 260 250 243 240 231 225 228 222
256 269 273 231 184 219 238 245 177 191 211 225 236 266 311 337 353 355 354 352 348 348 346 347 344 343 340 335 328 326 321 317 311 303 299 297 288 280 276 265 258 253 247 243 239 239 228 228 220
289 276 281 84 148 236 250 253 219 204 216 231 245 271 309 336 346 357 353 352 350 352 350 350 348 349 347 343 337 334 331 324 321 314 316 305 296 287 276 270 261 251 246 243 240 237 231 222 212
228 259 257 148 146 256 266 262 237 219 227 242 261 280 305 326 336 351 349 353 352 353 352 350 350 349 347 344 333 323 320 317 321 318 318 317 310 297 281 273 268 256 251 246 240 233 232 220 203
191 282 271 239 180 213 277 256 217 214 226 237 249 268 295 317 330 341 345 348 349 353 352 349 349 347 349 345 337 331 330 323 330 330 327 324 321 308 293 284 278 269 257 250 244 236 232 227 212
183 87 186 208 247 265 277 300 177 209 233 240 246 256 280 305 321 332 338 343 346 350 348 348 351 351 351 347 345 344 339 335 330 328 326 327 329 326 312 293 281 273 265 257 250 239 237 232 222
95 115 173 233 262 271 239 280 187 178 260 254 246 255 273 294 316 328 338 341 344 347 346 347 351 355 355 351 349 343 344 336 332 331 333 332 336 334 329 314 297 286 275 266 259 251 241 234 227
138 154 160 211 244 258 247 278 300 241 323 328 245 259 270 284 306 320 335 338 343 346 347 348 353 358 358 353 351 350 347 343 341 342 339 338 336 335 335 325 311 299 288 277 267 255 244 239 234
207 249 245 223 226 256 101 268 290 16 291 276 284 294 289 282 299 318 331 338 341 343 345 345 352 355 358 356 355 355 350 345 346 345 342 340 338 338 336 329 319 311 300 286 274 260 249 241 235
199 279 298 303 312 320 201 261 339 65 255 250 254 263 270 273 290 308 322 328 332 336 339 342 346 350 354 353 355 357 355 350 350 348 344 341 339 336 335 330 324 317 308 297 283 268 256 246 237
190 221 336 292 287 275 230 265 261 179 232 236 243 249 256 270 281 298 313 321 328 332 337 340 341 347 353 352 352 356 357 356 353 352 351 348 344 340 341 337 335 328 318 310 299 281 269 260 246
8 144 220 263 288 286 265 258 327 278 274 248 248 249 252 258 270 289 304 309 318 327 331 336 341 345 351 352 354 355 354 355 354 353 355 352 350 351 347 346 342 338 333 325 316 302 288 268 257
168 188 229 257 286 298 320 82 65 313 303 284 271 256 250 253 265 283 298 303 307 314 324 333 341 349 353 353 354 353 355 354 354 356 355 351 351 353 352 350 348 348 345 340 332 319 307 290 270
247 239 233 267 249 267 290 317 117 256 276 273 270 255 242 246 257 270 284 290 295 306 321 333 342 351 355 352 353 355 354 356 359 359 355 353 355 356 355 355 356 355 351 348 347 339 331 319 298
Height
1542 1543 1544 1545 1543 1538 1542 1543 1539 1540 1540 1543 1542 1542 1542 1544 1547 1554 1554 1552 1553 1554 1555 1555 1556 1556 1557 1558 1559 1560 1560 1561 1561 1561 1561 1562 1562 1562 1562 1562 1562 1562 1562 1561 1561 1561 1561 1561 1560
1544 1543 1545 1545 1539 1544 1548 1544 1543 1544 1544 1544 1544 1544 1545 1548 1552 1554 1553 1553 1554 1556 1556 1557 1556 1557 1558 1559 1559 1560 1560 1560 1561 1561 1561 1561 1561 1562 1562 1562 1562 1562 1561 1561 1561 1561 1561 1561 1561
1544 1544 1546 1540 1540 1545 1549 1546 1545 1546 1547 1546 1546 1548 1550 1554 1555 1555 1555 1555 1556 1557 1557 1557 1557 1558 1558 1559 1559 1560 1560 1560 1560 1561 1561 1561 1561 1561 1561 1561 1561 1561 1561 1561 1561 1561 1561 1561 1561
1545 1546 1545 1540 1545 1547 1548 1547 1547 1546 1547 1548 1547 1550 1555 1557 1557 1556 1556 1556 1557 1557 1557 1557 1557 1557 1558 1558 1559 1559 1559 1559 1560 1560 1560 1560 1560 1560 1560 1560 1560 1560 1560 1560 1560 1560 1560 1560 1560
1546 1545 1541 1544 1546 1548 1549 1550 1549 1548 1549 1550 1549 1552 1557 1559 1558 1557 1557 1557 1557 1558 1557 1557 1557 1557 1557 1557 1558 1558 1558 1558 1558 1559 1559 1559 1559 1558 1558 1559 1559 1559 1559 1559 1559 1559 1559 1559 1560
1547 1543 1543 1547 1548 1549 1551 1552 1551 1550 1552 1553 1553 1555 1560 1561 1559 1558 1558 1558 1557 1557 1557 1557 1556 1556 1556 1556 1557 1557 1557 1557 1557 1557 1557 1557 1557 1557 1557 1557 1557 1558 1558 1558 1558 1558 1558 1559 1559
1547 1542 1544 1546 1549 1549 1552 1554 1553 1552 1554 1556 1557 1557 1561 1562 1560 1559 1559 1558 1557 1557 1556 1556 1556 1556 1555 1555 1555 1555 1555 1554 1555 1555 1555 1555 1555 1555 1555 1555 1556 1556 1556 1556 1557 1557 1557 1557 1558
1546 1543 1544 1545 1548 1551 1554 1555 1557 1556 1558 1560 1559 1559 1563 1564 1562 1560 1559 1559 1558 1557 1556 1555 1555 1554 1554 1553 1553 1552 1552 1552 1552 1552 1553 1552 1552 1552 1552 1553 1553 1554 1554 1554 1555 1555 1556 1556 1556
1546 1544 1545 1546 1548 1550 1554 1555 1558 1560 1560 1561 1562 1563 1565 1564 1563 1562 1561 1560 1559 1558 1556 1555 1554 1553 1551 1551 1550 1549 1549 1549 1549 1549 1549 1549 1549 1550 1550 1550 1551 1551 1552 1552 1553 1553 1554 1554 1555
1546 1544 1546 1548 1548 1550 1554 1556 1558 1560 1561 1563 1564 1565 1565 1565 1565 1564 1562 1561 1560 1558 1557 1555 1553 1551 1550 1548 1547 1546 1546 1546 1546 1546 1546 1546 1547 1547 1548 1548 1548 1548 1549 1550 1551 1551 1551 1552 1554
1545 1546 1549 1551 1553 1554 1556 1558 1559 1559 1561 1564 1565 1567 1567 1566 1566 1565 1563 1562 1560 1559 1556 1554 1552 1550 1548 1546 1545 1544 1543 1542 1542 1542 1542 1542 1543 1543 1544 1544 1545 1545 1546 1547 1548 1549 1550 1551 1553
1548 1551 1551 1553 1555 1556 1557 1559 1560 1561 1564 1566 1566 1567 1567 1567 1566 1565 1563 1562 1560 1558 1555 1553 1551 1549 1546 1544 1543 1541 1540 1539 1538 1538 1538 1538 1539 1539 1540 1540 1541 1542 1543 1544 1545 1546 1548 1549 1551
1548 1552 1554 1556 1557 1557 1558 1560 1562 1564 1566 1567 1567 1568 1567 1567 1566 1565 1563 1561 1559 1557 1554 1551 1548 1547 1545 1542 1540 1539 1537 1536 1535 1534 1534 1534 1535 1535 1536 1536 1537 1539 1540 1541 1542 1543 1545 1546 1547
1550 1553 1555 1557 1558 1559 1559 1561 1562 1565 1566 1567 1568 1568 1567 1567 1566 1565 1563 1560 1558 1555 1552 1549 1546 1544 1542 1540 1538 1536 1534 1532 1531 1531 1530 1530 1530 1531 1531 1532 1532 1534 1536 1537 1538 1539 1541 1542 1544
1552 1553 1556 1557 1558 1559 1560 1560 1562 1565 1566 1567 1567 1568 1567 1567 1565 1564 1562 1559 1557 1554 1551 1547 1544 1542 1540 1537 1535 1533 1531 1529 1528 1527 1526 1526 1526 1526 1527 1527 1528 1529 1531 1532 1534 1535 1536 1538 1540
1550 1550 1552 1555 1557 1559 1560 1557 1562 1565 1566 1566 1567 1567 1567 1566 1565 1563 1561 1558 1555 1552 1549 1546 1543 1540 1537 1534 1531 1530 1528 1526 1525 1523 1522 1522 1522 1522 1522 1523 1524 1525 1526 1527 1529 1531 1532 1534 1536
1547 1547 1547 1552 1555 1556 1556 1555 1561 1564 1565 1565 1566 1566 1566 1565 1564 1562 1560 1557 1554 1551 1548 1545 1541 1538 1535 1532 1529 1527 1525 1523 1521 1520 1519 1518 1518 1518 1518 1518 1519 1521 1521 1523 1524 1526 1528 1530 1532
1544 1543 1545 1548 1552 1555 1554 1554 1560 1563 1563 1564 1564 1564 1564 1564 1563 1561 1559 1556 1553 1550 1547 1544 1540 1536 1533 1530 1528 1525 1523 1521 1519 1517 1516 1515 1514 1514 1515 1514 1515 1516 1517 1518 1520 1522 1523 1525 1528
1540 1543 1546 1550 1554 1554 1552 1553 1557 1560 1562 1562 1562 1563 1563 1563 1562 1560 1558 1555 1552 1549 1546 1543 1539 1536 1532 1529 1526 1523 1521 1519 1517 1515 1513 1512 1511 1511 1511 1511 1512 1512 1513 1514 1516 1517 1519 1520 1523
1542 1545 1548 1553 1556 1554 1552 1552 1554 1558 1559 1560 1561 1561 1561 1561 1560 1559 1557 1555 1552 1549 1545 1542 1538 1535 1531 1528 1525 1522 1519 1517 1514 1512 1511 1509 1508 1507 1507 1508 1508 1508 1509 1510 1511 1513 1514 1516 1518
1545 1546 1548 1551 1555 1554 1554 1549 1551 1554 1557 1559 1560 1560 1560 1560 1559 1558 1556 1554 1551 1548 1545 1541 1538 1534 1530 1527 1524 1521 1518 1515 1513 1511 1508 1507 1506 1505 1504 1504 1504 1505 1505 1506 1507 1508 1510 1511 1513
1548 1549 1550 1553 1552 1549 1554 1551 1545 1548 1553 1555 1557 1558 1558 1558 1558 1557 1555 1553 1550 1548 1544 1541 1537 1534 1530 1526 1523 1520 1517 1514 1511 1509 1507 1505 1504 1502 1501 1501 1501 1501 1501 1502 1503 1504 1505 1507 1508
1549 1551 1551 1552 1551 1551 1551 1551 1542 1548 1549 1550 1553 1555 1556 1557 1556 1555 1554 1552 1549 1547 1543 1540 1537 1533 1529 1526 1522 1519 1516 1513 1510 1508 1505 1504 1502 1500 1499 1499 1498 1498 1498 1498 1499 1500 1501 1502 1504
1551 1552 1552 1551 1549 1553 1551 1553 1547 1543 1546 1548 1551 1553 1554 1555 1555 1554 1553 1551 1549 1546 1543 1540 1537 1533 1529 1526 1522 1519 1516 1512 1510 1507 1504 1503 1501 1499 1498 1497 1496 1495 1495 1495 1495 1496 1496 1497 1499
1549 1549 1551 1552 1552 1550 1553 1554 1546 1544 1547 1549 1551 1552 1553 1553 1553 1552 1551 1550 1548 1545 1542 1540 1536 1533 1529 1526 1522 1519 1515 1512 1509 1506 1504 1502 1500 1498 1496 1495 1494 1493 1492 1492 1492 1492 1492 1493 1494
1548 1547 1554 1556 1553 1548 1552 1550 1542 1545 1548 1550 1551 1551 1552 1552 1552 1551 1550 1549 1547 1544 1542 1539 1536 1533 1529 1526 1523 1519 1515 1512 1509 1506 1504 1502 1499 1497 1495 1493 1492 1491 1490 1489 1488 1488 1489 1489 1490
1548 1547 1549 1549 1551 1552 1544 1543 1541 1545 1546 1548 1549 1550 1550 1550 1550 1550 1549 1548 1546 1544 1541 1538 1536 1533 1530 1526 1523 1519 1516 1512 1509 1507 1504 1502 1499 1497 1494 1492 1491 1489 1488 1487 1486 1486 1485 1485 1486
1548 1549 1550 1550 1555 1550 1547 1545 1542 1540 1542 1544 1546 1547 1548 1548 1549 1548 1547 1546 1545 1543 1540 1538 1535 1533 1530 1526 1523 1519 1516 1513 1510 1507 1504 1501 1499 1496 1494 1492 1490 1488 1486 1485 1484 1483 1483 1482 1482
1551 1552 1551 1551 1552 1552 1550 1545 1538 1540 1541 1542 1543 1545 1546 1546 1547 1547 1546 1545 1543 1542 1540 1537 1535 1532 1529 1526 1523 1520 1517 1514 1511 1508 1504 1502 1499 1496 1494 1491 1489 1487 1485 1484 1483 1481 1481 1480 1480
1548 1548 1549 1551 1551 1553 1552 1546 1538 1540 1542 1542 1542 1543 1544 1545 1545 1545 1544 1543 1542 1541 1539 1537 1535 1532 1529 1526 1523 1520 1517 1515 1512 1508 1505 1502 1499 1497 1494 1491 1489 1487 1485 1483 1482 1480 1479 1478 1477